Regional Weather Roundup
Issued by NWS

Home | Current Version | Previous Version | Text Only | Print | Product List | Glossary Off
Versions: 1 2 3 4 5 6 7 8 9 10 11 12 13 14 15 16 17 18 19 20 21 22 23 24 25 26 27 28 29 30 31 32 33 34 35 36 37 38 39 40 41 42 43 44 45 46 47 48 49 50

000
ASUS43 KLSX 290307
RWRMO

WEATHER SUMMARY FOR MISSOURI
NATIONAL WEATHER SERVICE SPRINGFIELD MO
1000 PM CDT WED SEP 28 2016

NOTE: "FAIR" INDICATES FEW OR NO CLOUDS BELOW 12,000 FEET WITH NO
       SIGNIFICANT WEATHER AND/OR OBSTRUCTIONS TO VISIBILITY.
       CURRENT SKY AND/OR WEATHER CONDITIONS ARE NOT AVAILABLE FOR
       CHILLICOTHE AND FARMINGTON.

MOZ001>031-035>038-043-044-053-054-290400-
...NORTHERN AND WESTERN MISSOURI...

CITY           SKY/WX    TMP DP  RH WIND       PRES   REMARKS
KANSAS CTY INT CLEAR     53  46  77 N6        30.26R
KANSAS C DTWN  CLEAR     58  46  64 N6        30.26R
LEE`S SUMMIT   CLEAR     56  46  69 N9        30.25R
ST JOSEPH      PTCLDY    54  49  83 N7        30.27R
CHILLICOTHE      N/A     57  49  74 N3        30.25R
KIRKSVILLE     CLEAR     53  48  83 NW6       30.22R

$$
MOZ066>068-077>081-088>096-101>105-290400-
...SOUTHWEST MISSOURI...

CITY           SKY/WX    TMP DP  RH WIND       PRES   REMARKS
SPRINGFIELD    PTCLDY    57  47  69 N10       30.19R
JOPLIN         CLEAR     54  48  80 N7        30.21R
BRANSON        CLEAR     57  46  67 N7        30.18R

$$
MOZ032>034-039>042-045>050-055>058-069>072-290400-
...CENTRAL MISSOURI...

CITY           SKY/WX    TMP DP  RH WIND       PRES   REMARKS
COLUMBIA       CLEAR     54  48  80 NW7       30.20R
JEFFERSON CITY CLEAR     55  48  77 NW3       30.19R
ROLLA          CLEAR     53  46  77 N5        30.17R
SEDALIA        CLEAR     54  47  77 NW6       30.23R
WHITEMAN AFB   PTCLDY    53  49  87 N7        30.22
OSAGE BEACH    CLEAR     53  48  83 NW3       30.21R

$$
MOZ051-052-059>065-290400-
...EAST CENTRAL MISSOURI...

CITY           SKY/WX    TMP DP  RH WIND       PRES   REMARKS
ST LOUIS INTL  PTCLDY    57  48  72 NW7       30.13S
SPIRIT OF STL  CLEAR     55  49  80 W7        30.13S
ST CHARLES     PTCLDY    57  50  77 NW7       30.13R

$$
MOZ072>076-082>087-097>100-106>115-290400-
...SOUTH CENTRAL AND SOUTHEAST MISSOURI...

CITY           SKY/WX    TMP DP  RH WIND       PRES   REMARKS
CAPE GIRARDEAU CLEAR     56  46  69 NW7       30.09S
FARMINGTON     CLEAR     55  47  74 NW6       30.14R
POPLAR BLUFF   CLEAR     54  50  86 N5        30.11R
WEST PLAINS    CLEAR     57  46  66 N8        30.17R

$$



USA.gov is the U.S. government's official web portal to all federal, state and local government web resources and services.